[[{"header":{"parameterUnit":"m.s-1","parameterCategory":2,"la1":30.2991,"la2":30.254,"lo1":-89.0895,"lo2":-89.0444,"dy":0.0017,"dx":0.0017,"nx":28,"ny":28,"refTime":"2024-10-01T03:00:00:Z","depth":"0","parameterNumber":2,"parameterNumberName":"U-component_of_CURRENTS"},"data":[0,0,0,0,0,0,0,0,0,0,0,0,0,0,0,0,0,0,0,0,0,0,0,0,0,0,0,0,0,0,0,0,0,0,0,0,0,0,0,0,0,0,0,0,0,0,0,0,0,0,0,0,0,0,0,0,0,0,0.2442,0.2442,0,0.2412,0.2412,0.2411,0.2375,0.2374,0.2374,0.2373,0.236,0.236,0.236,0,0,0,0,0,0,0,0,0,0,0,0,0,0.2486,0.2485,0.2442,0.2442,0.2442,0.2412,0.2412,0.2411,0.2375,0.2374,0.2374,0.2373,0.236,0.236,0.236,0,0,0,0,0,0,0,0,0,0,0,0,0,0.2461,0.2484,0.2442,0.2421,0.2419,0.2413,0.2412,0.2411,0.2375,0.2374,0.2373,0.2373,0.236,0.236,0.236,0.2374,0,0,0.236,0.236,0,0,0,0,0,0,0,0,0.2462,0.2459,0.2424,0.2422,0.242,0.2398,0.2422,0.24,0.2375,0.239,0.2373,0.2372,0.2376,0.2374,0.2368,0.2373,0.2372,0.236,0.236,0.236,0.236,0,0,0,0,0,0,0,0.2464,0.246,0.2429,0.2424,0.2422,0.2419,0.2415,0.2418,0.2386,0.2389,0.2386,0.2386,0.2374,0.2368,0.2367,0.2372,0.236,0.236,0.236,0.236,0.2446,0.2448,0,0,0,0,0,0,0.247,0.2462,0.243,0.2428,0.2442,0.2419,0.2414,0.2404,0.2385,0.2382,0.2386,0.2384,0.2368,0.2367,0.2367,0.2418,0.236,0.236,0.236,0.2444,0.2447,0.2449,0,0,0,0,0,0,0.2471,0.2468,0.2431,0.2446,0.2441,0.2419,0.2409,0.2404,0.2397,0.2384,0.238,0.2384,0.2367,0.2367,0.2384,0.2416,0.236,0.236,0.2441,0.2445,0.2448,0.2499,0,0,0,0,0,0,0.2473,0.2468,0.2466,0.2446,0.2441,0.2435,0.2409,0.2404,0.2398,0.2395,0.2381,0.2379,0.2367,0.2384,0.2384,0.2415,0.236,0.2439,0.2443,0.2447,0.2494,0.2503,0.2511,0,0,0,0,0,0.2474,0.2484,0.2466,0.2462,0.2438,0.2436,0.2433,0.2414,0.2399,0.2404,0.24,0.2379,0.2411,0.2385,0.2385,0.2417,0.2437,0.2442,0.2447,0.249,0.2501,0.2511,0,0,0,0,0,0,0.2509,0.248,0.246,0.2461,0.245,0.2431,0.2437,0.2419,0.2417,0.2416,0.2398,0.2396,0.2428,0.242,0.2392,0.2459,0.2425,0.243,0.2458,0.2469,0.2477,0.2496,0.236,0,0,0,0,0,0.2514,0.2506,0.2483,0.2484,0.248,0.2456,0.2453,0.2439,0.2434,0.2431,0.2419,0.2426,0.2449,0.2455,0.2466,0.2494,0.2511,0.2521,0.253,0.2536,0.2555,0.2625,0.2642,0.2466,0.2466,0.2466,0,0,0.2529,0.2512,0.2508,0.249,0.2478,0.2483,0.2453,0.2454,0.2462,0.2433,0.2444,0.245,0.2465,0.2501,0.2515,0.2496,0.2592,0.2543,0.2548,0.2563,0.2632,0.265,0.2665,0.2469,0.2469,0.2468,0,0,0.2561,0.2539,0.2544,0.2537,0.2522,0.2509,0.2511,0.2492,0.2489,0.2503,0.2496,0.2528,0.2536,0.2565,0.258,0.2647,0.2636,0.2646,0.27,0.2768,0.2783,0.2797,0.2821,0.2836,0.2649,0.2649,0.2649,0,0.2578,0.2573,0.255,0.2556,0.2552,0.2524,0.2533,0.2536,0.2525,0.2529,0.2517,0.2566,0.2578,0.2641,0.2674,0.2667,0.2686,0.2653,0.2779,0.2793,0.2806,0.2828,0.2844,0.2652,0.2652,0.2652,0.2651,0,0.2611,0.2607,0.2615,0.2603,0.2604,0.2607,0.2602,0.2603,0.2593,0.2591,0.2636,0.266,0.2685,0.2709,0.2716,0.2813,0.2789,0.278,0.2749,0.2826,0.2844,0.286,0.2657,0.2656,0.2655,0.2654,0,0,0.2623,0.2634,0.2631,0.2623,0.2622,0.2616,0.2647,0.2654,0.2654,0.268,0.2698,0.278,0.2776,0.2799,0.2811,0.2888,0.2998,0.288,0.2882,0.2896,0.3123,0.3036,0.3044,0.3008,0.3012,0.3015,0.3091,0,0.2643,0.2662,0.2665,0.2671,0.2669,0.2663,0.2682,0.269,0.2693,0.2704,0.2762,0.2781,0.2814,0.2818,0.2911,0.296,0.3046,0.2976,0.3053,0.3055,0.2963,0.3063,0.2908,0.2957,0.3106,0.3109,0.3111,0,0.265,0.2658,0.2677,0.2671,0.267,0.2676,0.2671,0.2686,0.2716,0.2722,0.2772,0.2785,0.2888,0.2902,0.3068,0.3017,0.3093,0.3146,0.315,0.3067,0.3,0.291,0.298,0.2834,0.3135,0.3133,0.3131,0,0.2628,0.2649,0.2658,0.2659,0.2667,0.267,0.267,0.2686,0.2686,0.2723,0.2719,0.2826,0.2851,0.2993,0.3088,0.3088,0.3256,0.3256,0.3257,0.3248,0.3132,0.3108,0.3066,0.3414,0.3414,0.3414,0.3413,0,0.262,0.2616,0.2643,0.2639,0.2631,0.2644,0.2632,0.2645,0.2663,0.2655,0.2717,0.2728,0.2883,0.2969,0.3094,0.3203,0.3259,0.3293,0.3283,0.3141,0.3118,0.2997,0.293,0.3416,0.3416,0.3415,0.3415,0,0.258,0.2605,0.2601,0.2617,0.2615,0.2602,0.2594,0.2582,0.2604,0.2597,0.2604,0.267,0.2767,0.2901,0.3092,0.317,0.3188,0.3333,0.3128,0.3094,0.2952,0.2895,0.2776,0.274,0.3357,0.3356,0.3355,0,0.256,0.2559,0.2572,0.2562,0.2564,0.2549,0.2531,0.2548,0.2534,0.2551,0.2543,0.2613,0.2646,0.2855,0.3008,0.3182,0.3105,0.3131,0.313,0.2942,0.2872,0.2746,0.2718,0.299,0.2986,0.2983,0.298,0,0.2514,0.2523,0.2525,0.2511,0.2491,0.2469,0.2449,0.2432,0.244,0.2428,0.2421,0.2447,0.2599,0.2667,0.2858,0.2975,0.291,0.3068,0.2944,0.265,0.2442,0.2399,0.291,0.295,0.2953,0.2956,0.2957,0.2958,0.2473,0.2465,0.2472,0.2449,0.2425,0.2386,0.2346,0.2323,0.2288,0.2246,0.2298,0.2288,0.2354,0.2595,0.268,0.2664,0.2736,0.2623,0.2591,0.2498,0.2391,0.2815,0.2796,0.2798,0.2799,0.2801,0.2802,0,0.2421,0.2422,0.2404,0.2372,0.2321,0.2331,0.2281,0.2222,0.215,0.2136,0.2109,0.2075,0.2101,0.2188,0.2217,0.2168,0.2164,0.2118,0.1911,0.1938,0.2374,0.2284,0.2063,0.2063,0.2063,0.2063,0.2064,0.2064,0.2397,0.2373,0.2368,0.2279,0.2247,0.2157,0.212,0.2038,0.2002,0.1876,0.1818,0.1809,0.1763,0.1667,0.1593,0.1632,0.1542,0.1454,0.153,0.1802,0.1846,0.1888,0.1788,0.1467,0.1466,0.1018,0.1014,0.1011]},{"header":{"parameterUnit":"m.s-1","parameterCategory":2,"la1":30.2991,"la2":30.254,"lo1":-89.0895,"lo2":-89.0444,"dy":0.0017,"dx":0.0017,"nx":28,"ny":28,"refTime":"2024-10-01T03:00:00:Z","depth":"0","parameterNumber":3,"parameterNumberName":"V-component_of_CURRENTS"},"data":[0,0,0,0,0,0,0,0,0,0,0,0,0,0,0,0,0,0,0,0,0,0,0,0,0,0,0,0,0,0,0,0,0,0,0,0,0,0,0,0,0,0,0,0,0,0,0,0,0,0,0,0,0,0,0,0,0,0,0.0383,0.0382,0,0.0356,0.0355,0.0355,0.0317,0.0316,0.0316,0.0315,0.0296,0.0296,0.0296,0,0,0,0,0,0,0,0,0,0,0,0,0,0.0392,0.0393,0.0383,0.0382,0.0382,0.0356,0.0355,0.0355,0.0317,0.0316,0.0315,0.0315,0.0296,0.0296,0.0296,0,0,0,0,0,0,0,0,0,0,0,0,0,0.0379,0.0393,0.0383,0.036,0.0358,0.0356,0.0355,0.0355,0.0317,0.0316,0.0315,0.0314,0.0296,0.0296,0.0296,0.0315,0,0,0.0296,0.0297,0,0,0,0,0,0,0,0,0.038,0.0378,0.0364,0.0362,0.0359,0.0339,0.0352,0.0342,0.0317,0.0332,0.0315,0.0314,0.0312,0.0311,0.0307,0.0314,0.0313,0.0296,0.0297,0.0297,0.0297,0,0,0,0,0,0,0,0.0381,0.0379,0.0371,0.0364,0.0361,0.0348,0.0346,0.035,0.0328,0.0331,0.0328,0.0326,0.0311,0.0307,0.0306,0.0313,0.0296,0.0297,0.0297,0.0297,0.0356,0.0358,0,0,0,0,0,0,0.0386,0.038,0.0372,0.0371,0.0368,0.0349,0.0346,0.0346,0.0327,0.0323,0.0327,0.0324,0.0307,0.0306,0.0306,0.0353,0.0297,0.0297,0.0297,0.0355,0.0357,0.0358,0,0,0,0,0,0,0.0387,0.0386,0.0373,0.0375,0.0372,0.035,0.0351,0.0346,0.034,0.0324,0.032,0.0325,0.0307,0.0305,0.0322,0.0351,0.0297,0.0297,0.0353,0.0355,0.0358,0.0431,0,0,0,0,0,0,0.0387,0.0386,0.0391,0.0376,0.0373,0.0378,0.0351,0.0346,0.034,0.0337,0.0322,0.0319,0.0306,0.0322,0.0322,0.035,0.0297,0.0351,0.0354,0.0357,0.0427,0.0436,0.0443,0,0,0,0,0,0.0388,0.0397,0.0392,0.0391,0.0379,0.0379,0.0376,0.0356,0.0341,0.0346,0.0342,0.0319,0.034,0.0324,0.0323,0.0352,0.035,0.0353,0.0357,0.0423,0.0434,0.0443,0,0,0,0,0,0,0.0404,0.0394,0.0387,0.0393,0.039,0.0372,0.0373,0.0361,0.0361,0.0357,0.0339,0.0337,0.0365,0.0349,0.0332,0.0378,0.0341,0.0345,0.0392,0.0402,0.041,0.0424,0.0297,0,0,0,0,0,0.0412,0.0415,0.0405,0.0411,0.0409,0.0393,0.039,0.0379,0.0374,0.0372,0.0366,0.0366,0.038,0.0382,0.0389,0.0413,0.0403,0.0431,0.0439,0.0446,0.0459,0.0479,0.0491,0.037,0.037,0.037,0,0,0.0419,0.0415,0.0416,0.0415,0.0407,0.0413,0.0389,0.0388,0.0401,0.0372,0.0392,0.0396,0.0394,0.0425,0.0435,0.0414,0.0474,0.0451,0.0457,0.0465,0.0484,0.0496,0.0506,0.0372,0.0372,0.0371,0,0,0.0432,0.0432,0.0437,0.0439,0.0434,0.043,0.0432,0.0425,0.0428,0.0449,0.0441,0.0469,0.0471,0.049,0.0496,0.0556,0.052,0.0548,0.0599,0.0619,0.0629,0.0638,0.0631,0.0638,0.0549,0.0549,0.0549,0,0.0438,0.0445,0.044,0.0447,0.0451,0.044,0.0449,0.046,0.0462,0.0482,0.0463,0.0513,0.0509,0.0566,0.0585,0.0577,0.0566,0.056,0.063,0.0639,0.0647,0.0637,0.0644,0.0553,0.0553,0.0552,0.0552,0,0.0454,0.0461,0.0466,0.0473,0.0482,0.0488,0.05,0.052,0.0524,0.0538,0.0594,0.0605,0.0632,0.0641,0.0629,0.0691,0.0658,0.0641,0.0605,0.0663,0.0649,0.0655,0.0559,0.0557,0.0556,0.0555,0,0,0.0455,0.0471,0.0472,0.048,0.0495,0.0502,0.0542,0.0576,0.0607,0.0634,0.0684,0.0728,0.0736,0.0746,0.0746,0.0768,0.0811,0.0727,0.0727,0.0719,0.0833,0.0784,0.0786,0.08,0.0801,0.0803,0.0796,0,0.0463,0.0479,0.0491,0.0515,0.0522,0.0543,0.058,0.0618,0.0649,0.07,0.0744,0.0784,0.0775,0.0789,0.0821,0.0815,0.0832,0.0813,0.0778,0.0777,0.0727,0.0794,0.0822,0.0817,0.0802,0.0803,0.0804,0,0.0471,0.048,0.0498,0.0533,0.054,0.0559,0.0618,0.0651,0.0729,0.0756,0.0821,0.0844,0.0907,0.0876,0.0918,0.09,0.0876,0.0866,0.0865,0.0802,0.0742,0.0758,0.0828,0.0778,0.0813,0.0813,0.0812,0,0.0462,0.0488,0.0502,0.0511,0.055,0.0573,0.06,0.0669,0.0707,0.0792,0.0829,0.0904,0.0933,0.0946,0.0935,0.0922,0.0957,0.0931,0.0869,0.0863,0.0873,0.0865,0.0893,0.0957,0.0957,0.0957,0.0957,0,0.0463,0.0475,0.0497,0.0503,0.0533,0.0565,0.0613,0.0657,0.073,0.0787,0.0852,0.0911,0.095,0.0977,0.0959,0.0938,0.0975,0.0896,0.0873,0.0896,0.0891,0.0833,0.0797,0.0956,0.0957,0.0957,0.0957,0,0.0448,0.0463,0.0477,0.0511,0.0524,0.0544,0.0602,0.0645,0.071,0.0787,0.0814,0.0915,0.0956,0.0976,0.0989,0.0955,0.0922,0.0915,0.0926,0.0904,0.0789,0.0755,0.0775,0.0769,0.0854,0.0853,0.0852,0,0.0441,0.0445,0.047,0.0482,0.0494,0.0528,0.056,0.0624,0.0672,0.079,0.083,0.0902,0.0974,0.0982,0.0953,0.0924,0.0892,0.0886,0.0876,0.0803,0.075,0.0751,0.0746,0.0913,0.0913,0.0913,0.0912,0,0.0424,0.0429,0.0439,0.0462,0.0486,0.0525,0.0574,0.0609,0.0698,0.0766,0.0869,0.0937,0.0974,0.0992,0.094,0.0913,0.0869,0.0875,0.0825,0.0825,0.0809,0.0785,0.0867,0.091,0.091,0.0911,0.0911,0.0911,0.0406,0.0409,0.0424,0.0449,0.048,0.0534,0.0571,0.0635,0.0712,0.0837,0.089,0.1007,0.102,0.0983,0.0924,0.0823,0.0828,0.0789,0.076,0.0772,0.0761,0.0815,0.081,0.081,0.081,0.0809,0.0809,0,0.0388,0.0399,0.0418,0.0453,0.0491,0.0516,0.0592,0.0643,0.0733,0.0854,0.0953,0.1049,0.1024,0.0976,0.0844,0.0738,0.0748,0.0684,0.0717,0.0721,0.0798,0.0792,0.0756,0.0756,0.0756,0.0756,0.0756,0.0756,0.038,0.0388,0.0405,0.0459,0.0492,0.0552,0.0599,0.068,0.0774,0.0922,0.102,0.11,0.1065,0.0845,0.0683,0.0653,0.0612,0.06,0.0557,0.0614,0.0622,0.063,0.0619,0.0546,0.0546,0.0538,0.0537,0.0536]}],[{"header":{"parameterUnit":"m.s-1","parameterCategory":2,"la1":30.2991,"la2":30.254,"lo1":-89.0895,"lo2":-89.0444,"dy":0.0017,"dx":0.0017,"nx":28,"ny":28,"refTime":"2024-10-01T03:00:00:Z","depth":"2","parameterNumber":2,"parameterNumberName":"U-component_of_CURRENTS"},"data":[0,0,0,0,0,0,0,0,0,0,0,0,0,0,0,0,0,0,0,0,0,0,0,0,0,0,0,0,0,0,0,0,0,0,0,0,0,0,0,0,0,0,0,0,0,0,0,0,0,0,0,0,0,0,0,0,0,0,0.1016,0.1016,0,0.0993,0.0993,0.0993,0.105,0.1052,0.1054,0.1055,0.1194,0.1196,0.1198,0,0,0,0,0,0,0,0,0,0,0,0,0,0.1101,0.1099,0.1016,0.1016,0.1015,0.0993,0.0993,0.0993,0.105,0.1052,0.1054,0.1056,0.1193,0.1195,0.1198,0,0,0,0,0,0,0,0,0,0,0,0,0,0.107,0.1098,0.1016,0.104,0.1042,0.0993,0.0993,0.0993,0.105,0.1052,0.1055,0.1057,0.1192,0.1195,0.1198,0.1166,0,0,0.1208,0.1209,0,0,0,0,0,0,0,0,0.1072,0.1067,0.1037,0.1039,0.1041,0.1026,0.1074,0.1059,0.1049,0.1048,0.1055,0.1058,0.115,0.1157,0.1146,0.1173,0.1179,0.1208,0.121,0.1211,0.1212,0,0,0,0,0,0,0,0.1074,0.1069,0.1008,0.1037,0.1039,0.1049,0.1048,0.107,0.1089,0.1048,0.1052,0.1047,0.1153,0.1143,0.115,0.1181,0.1208,0.1211,0.1213,0.1214,0.1422,0.1425,0,0,0,0,0,0,0.1072,0.107,0.1009,0.1007,0.1062,0.1046,0.1044,0.1029,0.1085,0.1094,0.1045,0.105,0.1136,0.1146,0.1155,0.1231,0.1211,0.1214,0.1216,0.1418,0.1423,0.1427,0,0,0,0,0,0,0.1073,0.1066,0.101,0.1039,0.1032,0.1042,0.1024,0.1027,0.1054,0.108,0.1094,0.1072,0.1138,0.1151,0.1226,0.1233,0.1216,0.1218,0.1414,0.142,0.1425,0.1313,0,0,0,0,0,0,0.1076,0.1066,0.107,0.1038,0.103,0.1001,0.1022,0.1025,0.1044,0.1051,0.1107,0.112,0.1141,0.1221,0.1229,0.1237,0.1221,0.1409,0.1417,0.1423,0.1312,0.1314,0.1315,0,0,0,0,0,0.1079,0.1061,0.107,0.1063,0.1029,0.1001,0.0999,0.1015,0.1043,0.105,0.1111,0.1121,0.1272,0.1225,0.1234,0.1243,0.1406,0.1414,0.1422,0.1311,0.1313,0.1315,0,0,0,0,0,0,0.1101,0.1064,0.1073,0.1048,0.1039,0.1011,0.1011,0.1028,0.1073,0.1098,0.1139,0.1156,0.1232,0.1274,0.1221,0.1341,0.1352,0.1362,0.1265,0.1267,0.1269,0.125,0.1224,0,0,0,0,0,0.1104,0.1085,0.1059,0.1044,0.1035,0.1031,0.1029,0.1041,0.1064,0.1087,0.113,0.1203,0.1263,0.1294,0.1354,0.1392,0.1412,0.1425,0.1426,0.1427,0.1429,0.1456,0.1457,0.1454,0.1453,0.1453,0,0,0.1107,0.1087,0.1077,0.1049,0.1039,0.1019,0.1038,0.1034,0.104,0.1095,0.114,0.1204,0.1283,0.1336,0.1375,0.1371,0.1443,0.1437,0.1435,0.1438,0.1464,0.1463,0.1462,0.1459,0.1458,0.1457,0,0,0.1084,0.1085,0.1057,0.1047,0.1035,0.1029,0.1036,0.1032,0.1058,0.11,0.1158,0.1223,0.1311,0.1347,0.1383,0.1437,0.1455,0.1491,0.146,0.1485,0.1483,0.1481,0.1491,0.1492,0.1482,0.1482,0.1482,0,0.109,0.1054,0.1049,0.1021,0.1016,0.1036,0.1016,0.1028,0.1062,0.1093,0.1122,0.1262,0.1306,0.1366,0.1391,0.1427,0.1457,0.1419,0.1476,0.1475,0.1475,0.1486,0.1488,0.1478,0.1478,0.1479,0.1479,0,0.1037,0.1026,0.1008,0.0981,0.0981,0.0967,0.0977,0.1006,0.1051,0.1075,0.1164,0.1224,0.1315,0.1339,0.1372,0.1418,0.1443,0.1465,0.1437,0.1466,0.148,0.1482,0.1472,0.1473,0.1474,0.1476,0,0,0.0993,0.0973,0.097,0.0967,0.0964,0.0952,0.0973,0.0994,0.1026,0.1081,0.1128,0.1211,0.1267,0.1317,0.1369,0.1379,0.138,0.1423,0.1426,0.1376,0.1438,0.1356,0.1352,0.1411,0.1411,0.1412,0.1437,0,0.0954,0.0908,0.0912,0.0893,0.0873,0.0911,0.0929,0.0966,0.102,0.1075,0.1143,0.1221,0.1254,0.1308,0.1321,0.1394,0.1391,0.1372,0.1471,0.1474,0.1348,0.1353,0.118,0.118,0.1441,0.1441,0.1441,0,0.0891,0.0876,0.0848,0.0863,0.0859,0.0867,0.0918,0.0937,0.1018,0.1068,0.1147,0.122,0.1282,0.1298,0.1379,0.1377,0.1403,0.1425,0.1427,0.1392,0.1398,0.1207,0.1177,0.1447,0.1447,0.1446,0.1446,0,0.0853,0.0832,0.0818,0.0817,0.0833,0.0857,0.0883,0.0951,0.0984,0.1081,0.113,0.1219,0.1287,0.1333,0.1407,0.1406,0.1475,0.1476,0.1412,0.1407,0.1299,0.1282,0.1498,0.1498,0.1498,0.1498,0.1498,0,0.0797,0.0789,0.0809,0.0799,0.0812,0.0842,0.088,0.0924,0.0997,0.1042,0.114,0.1193,0.1304,0.1369,0.1408,0.1426,0.1481,0.14,0.1405,0.1259,0.1239,0.1516,0.1518,0.1499,0.1498,0.1498,0.1498,0,0.0752,0.0759,0.0747,0.0775,0.0793,0.0808,0.0869,0.0894,0.0976,0.104,0.1078,0.1194,0.1286,0.1369,0.145,0.1423,0.1447,0.1433,0.1246,0.1227,0.1356,0.1353,0.1348,0.1346,0.1343,0.1341,0.134,0,0.0719,0.0707,0.0729,0.0733,0.0753,0.0787,0.0812,0.0884,0.0913,0.1031,0.1054,0.1175,0.1246,0.1325,0.1249,0.1258,0.1419,0.1159,0.1101,0.1334,0.134,0.1341,0.1341,0.092,0.0915,0.0911,0.0908,0,0.066,0.0678,0.0671,0.0691,0.0714,0.0734,0.0781,0.0798,0.0886,0.095,0.1037,0.1105,0.1112,0.1046,0.1046,0.103,0.114,0.1073,0.1379,0.0979,0.093,0.0936,0.0951,0.0872,0.0875,0.0878,0.088,0.0881,0.0624,0.0615,0.0623,0.0644,0.0666,0.0694,0.0722,0.0761,0.0815,0.0899,0.096,0.1004,0.0903,0.0786,0.078,0.0771,0.0813,0.0843,0.0855,0.0872,0.0812,0.0762,0.066,0.0662,0.0664,0.0666,0.0667,0,0.0577,0.0582,0.0578,0.06,0.0615,0.0672,0.0707,0.0736,0.0796,0.0812,0.0879,0.0693,0.0622,0.064,0.0475,0.0422,0.0414,0.0529,0.0527,0.0557,0.0585,0.0514,0.0281,0.0281,0.0282,0.0282,0,0,0.0549,0.0532,0.0537,0.0554,0.06,0.0655,0.0696,0.0729,0.0736,0.0703,0.0666,0.0614,0.0556,0.039,0.0326,0.0337,0.0481,0.033,0.0612,0.0637,0.0668,0.0702,0.0616,0,0,0,0,0]},{"header":{"parameterUnit":"m.s-1","parameterCategory":2,"la1":30.2991,"la2":30.254,"lo1":-89.0895,"lo2":-89.0444,"dy":0.0017,"dx":0.0017,"nx":28,"ny":28,"refTime":"2024-10-01T03:00:00:Z","depth":"2","parameterNumber":3,"parameterNumberName":"V-component_of_CURRENTS"},"data":[0,0,0,0,0,0,0,0,0,0,0,0,0,0,0,0,0,0,0,0,0,0,0,0,0,0,0,0,0,0,0,0,0,0,0,0,0,0,0,0,0,0,0,0,0,0,0,0,0,0,0,0,0,0,0,0,0,0,-0.0193,-0.0193,0,-0.0184,-0.0183,-0.0183,-0.0171,-0.0171,-0.0171,-0.0171,-0.0162,-0.0161,-0.0161,0,0,0,0,0,0,0,0,0,0,0,0,0,-0.0158,-0.0159,-0.0193,-0.0193,-0.0193,-0.0184,-0.0183,-0.0183,-0.0171,-0.0171,-0.0171,-0.0171,-0.0162,-0.0161,-0.0161,0,0,0,0,0,0,0,0,0,0,0,0,0,-0.0162,-0.016,-0.0193,-0.0187,-0.0187,-0.0184,-0.0183,-0.0183,-0.0171,-0.0171,-0.0171,-0.0171,-0.0162,-0.0161,-0.0161,-0.0161,0,0,-0.016,-0.016,0,0,0,0,0,0,0,0,-0.0162,-0.0163,-0.0188,-0.0188,-0.0187,-0.018,-0.0167,-0.0176,-0.0171,-0.0176,-0.0171,-0.0171,-0.0169,-0.0168,-0.0164,-0.016,-0.016,-0.016,-0.016,-0.016,-0.016,0,0,0,0,0,0,0,-0.0162,-0.0164,-0.0188,-0.0188,-0.0188,-0.017,-0.0171,-0.0169,-0.0172,-0.0175,-0.0175,-0.0176,-0.0168,-0.0164,-0.0164,-0.0159,-0.016,-0.016,-0.016,-0.016,-0.0118,-0.0117,0,0,0,0,0,0,-0.0169,-0.0164,-0.0188,-0.0188,-0.0176,-0.0171,-0.0172,-0.0181,-0.0172,-0.0171,-0.0176,-0.0176,-0.0165,-0.0164,-0.0163,-0.015,-0.016,-0.0159,-0.0159,-0.0119,-0.0117,-0.0116,0,0,0,0,0,0,-0.0168,-0.0171,-0.0189,-0.0176,-0.0177,-0.0173,-0.0182,-0.0181,-0.0172,-0.0173,-0.0171,-0.0169,-0.0165,-0.0164,-0.0143,-0.015,-0.0159,-0.0159,-0.012,-0.0118,-0.0117,-0.0132,0,0,0,0,0,0,-0.0167,-0.0171,-0.0172,-0.0177,-0.0178,-0.018,-0.0183,-0.0181,-0.0174,-0.0173,-0.0166,-0.0165,-0.0165,-0.0143,-0.0143,-0.015,-0.0159,-0.0121,-0.0119,-0.0117,-0.0132,-0.0131,-0.013,0,0,0,0,0,-0.0166,-0.017,-0.0172,-0.0174,-0.0182,-0.018,-0.0178,-0.0174,-0.0174,-0.0166,-0.0154,-0.0165,-0.0132,-0.0142,-0.0142,-0.0149,-0.0122,-0.012,-0.0118,-0.0133,-0.0131,-0.013,0,0,0,0,0,0,-0.0149,-0.0169,-0.0172,-0.018,-0.0177,-0.0178,-0.0171,-0.0171,-0.0156,-0.0152,-0.0152,-0.0149,-0.0134,-0.0131,-0.0142,-0.0128,-0.013,-0.0128,-0.0142,-0.014,-0.0139,-0.0138,-0.0159,0,0,0,0,0,-0.0148,-0.0158,-0.0168,-0.017,-0.0171,-0.017,-0.0167,-0.0164,-0.0157,-0.015,-0.0144,-0.0134,-0.0126,-0.0124,-0.0112,-0.0107,-0.0114,-0.0109,-0.0107,-0.0107,-0.0103,-0.0132,-0.0135,-0.011,-0.011,-0.011,0,0,-0.014,-0.0153,-0.0157,-0.0167,-0.0165,-0.0163,-0.0167,-0.0161,-0.0154,-0.0152,-0.0134,-0.0128,-0.012,-0.011,-0.0104,-0.011,-0.0112,-0.0104,-0.0104,-0.01,-0.0131,-0.0134,-0.0136,-0.0108,-0.0108,-0.0109,0,0,-0.0134,-0.0142,-0.015,-0.0149,-0.0151,-0.015,-0.0148,-0.0146,-0.0139,-0.0123,-0.012,-0.0116,-0.0099,-0.0102,-0.01,-0.0084,-0.0101,-0.0078,-0.0081,-0.011,-0.0113,-0.0116,-0.0114,-0.0117,-0.0084,-0.0084,-0.0084,0,-0.0122,-0.0136,-0.0147,-0.0151,-0.0144,-0.0145,-0.0139,-0.0134,-0.0122,-0.0109,-0.0115,-0.0092,-0.0099,-0.009,-0.009,-0.0086,-0.0091,-0.0094,-0.0112,-0.0115,-0.0118,-0.0115,-0.0118,-0.0084,-0.0084,-0.0084,-0.0084,0,-0.0125,-0.0128,-0.0129,-0.0137,-0.0129,-0.0122,-0.012,-0.0104,-0.0098,-0.0093,-0.0076,-0.0083,-0.0069,-0.008,-0.0085,-0.01,-0.0092,-0.0107,-0.0124,-0.0122,-0.0118,-0.0121,-0.0085,-0.0085,-0.0084,-0.0084,0,0,-0.0118,-0.0131,-0.0128,-0.012,-0.0119,-0.0108,-0.0094,-0.0075,-0.0046,-0.0056,-0.0028,-0.0049,-0.0051,-0.0049,-0.0061,-0.01,-0.0134,-0.0115,-0.0116,-0.0127,-0.0176,-0.0127,-0.0125,-0.0159,-0.016,-0.016,-0.0161,0,-0.0112,-0.0115,-0.0121,-0.0099,-0.0093,-0.0081,-0.0059,-0.0039,-0.0019,0.0011,-0.0015,0.0005,-0.004,-0.0031,-0.0079,-0.0101,-0.0143,-0.013,-0.0164,-0.0164,-0.0134,-0.0128,-0.0134,-0.0132,-0.0164,-0.0165,-0.0165,0,-0.011,-0.011,-0.0101,-0.0069,-0.0062,-0.0048,0.0008,0.0028,0.006,0.0076,0.0077,0.0074,0.0042,-0.0007,-0.0078,-0.0065,-0.0125,-0.0165,-0.0166,-0.0118,-0.0121,-0.014,-0.0136,-0.017,-0.0169,-0.0169,-0.0169,0,-0.0095,-0.0086,-0.0074,-0.0068,-0.0042,-0.002,0.0005,0.0048,0.0087,0.012,0.0158,0.0121,0.0124,0.0033,-0.0039,-0.0062,-0.0115,-0.0156,-0.0171,-0.0167,-0.0174,-0.0169,-0.0233,-0.0233,-0.0233,-0.0233,-0.0233,0,-0.0085,-0.0069,-0.0066,-0.0057,-0.0014,-0.0,0.0062,0.0091,0.0143,0.0203,0.0189,0.0227,0.0128,0.0098,-0.0005,-0.0069,-0.0089,-0.0162,-0.0167,-0.0174,-0.0169,-0.0208,-0.0205,-0.0233,-0.0233,-0.0233,-0.0233,0,-0.0068,-0.0073,-0.005,-0.0024,-0.001,0.0024,0.0092,0.0147,0.0191,0.027,0.0283,0.0307,0.0284,0.02,0.0086,0.0004,-0.0084,-0.0114,-0.0091,-0.0094,-0.0127,-0.0125,-0.013,-0.0129,-0.0127,-0.0126,-0.0125,0,-0.0064,-0.0056,-0.0026,-0.0,0.0012,0.0062,0.011,0.0161,0.0226,0.0321,0.0366,0.0385,0.042,0.0315,0.0171,0.0044,-0.002,-0.0056,-0.0117,-0.0114,-0.0119,-0.0119,-0.0118,-0.0131,-0.013,-0.013,-0.0129,0,-0.0042,-0.0035,-0.0013,0.0036,0.0079,0.0143,0.0212,0.0265,0.0343,0.0421,0.0515,0.0551,0.0487,0.0369,0.0224,0.013,-0.0031,-0.0044,-0.0059,-0.0143,-0.0112,-0.0117,-0.0118,-0.0123,-0.0124,-0.0124,-0.0124,-0.0125,-0.0021,0.0005,0.0036,0.009,0.0142,0.023,0.0291,0.0376,0.0484,0.0609,0.0622,0.0651,0.0449,0.0275,0.0172,0.0074,0.0048,-0.0056,-0.006,-0.0065,-0.0051,-0.0018,-0.0008,-0.0008,-0.0008,-0.0008,-0.0008,0,0.0014,0.0048,0.0098,0.0169,0.0244,0.0259,0.0371,0.0443,0.057,0.0646,0.0734,0.0544,0.0435,0.0264,0.012,0.002,0.0004,-0.0004,-0.0052,-0.0058,-0.0063,-0.0051,-0.0007,-0.0007,-0.0007,-0.0007,0,0,0.0037,0.0095,0.0128,0.0252,0.0302,0.0398,0.046,0.0562,0.0619,0.0704,0.0684,0.0629,0.0382,0.0227,0.0103,0.0064,0.0044,0.0076,0.008,0.0034,0.003,-0.0094,-0.0082,0,0,0,0,0]}],[{"header":{"parameterUnit":"m.s-1","parameterCategory":2,"la1":30.2991,"la2":30.254,"lo1":-89.0895,"lo2":-89.0444,"dy":0.0017,"dx":0.0017,"nx":28,"ny":28,"refTime":"2024-10-01T03:00:00:Z","depth":"4","parameterNumber":2,"parameterNumberName":"U-component_of_CURRENTS"},"data":[0,0,0,0,0,0,0,0,0,0,0,0,0,0,0,0,0,0,0,0,0,0,0,0,0,0,0,0,0,0,0,0,0,0,0,0,0,0,0,0,0,0,0,0,0,0,0,0,0,0,0,0,0,0,0,0,0,0,-0.034,-0.034,0,-0.03,-0.0299,-0.0298,-0.023,-0.0229,-0.0227,-0.0226,-0.0179,-0.0179,-0.0178,0,0,0,0,0,0,0,0,0,0,0,0,0,-0.0347,-0.0347,-0.034,-0.034,-0.034,-0.03,-0.0299,-0.0298,-0.023,-0.0229,-0.0227,-0.0226,-0.0179,-0.0179,-0.0178,0,0,0,0,0,0,0,0,0,0,0,0,0,-0.0327,-0.0347,-0.034,-0.0302,-0.0298,-0.03,-0.0299,-0.0298,-0.023,-0.0228,-0.0227,-0.0225,-0.0179,-0.0179,-0.0178,-0.021,0,0,-0.0177,-0.0177,0,0,0,0,0,0,0,0,-0.0329,-0.0327,-0.0308,-0.0305,-0.0301,-0.027,-0.0284,-0.0269,-0.0231,-0.0254,-0.0226,-0.0224,-0.0211,-0.0208,-0.0201,-0.0207,-0.0205,-0.0177,-0.0177,-0.0177,-0.0177,0,0,0,0,0,0,0,-0.033,-0.0328,-0.0322,-0.0308,-0.0303,-0.0283,-0.0278,-0.0281,-0.0241,-0.0252,-0.0247,-0.0246,-0.0208,-0.0202,-0.02,-0.0205,-0.0177,-0.0177,-0.0177,-0.0177,-0.0162,-0.0162,0,0,0,0,0,0,-0.0341,-0.033,-0.0324,-0.0321,-0.0313,-0.0284,-0.0279,-0.028,-0.0241,-0.0234,-0.0248,-0.0243,-0.0203,-0.02,-0.0198,-0.0158,-0.0177,-0.0177,-0.0176,-0.0162,-0.0162,-0.0162,0,0,0,0,0,0,-0.0342,-0.0341,-0.0325,-0.0326,-0.0322,-0.0286,-0.0288,-0.028,-0.0242,-0.0238,-0.023,-0.0214,-0.0202,-0.0198,-0.017,-0.0158,-0.0176,-0.0176,-0.0163,-0.0162,-0.0162,-0.0126,0,0,0,0,0,0,-0.0342,-0.0342,-0.0345,-0.0327,-0.0323,-0.0313,-0.0289,-0.028,-0.0246,-0.0239,-0.0207,-0.0203,-0.02,-0.0171,-0.017,-0.0158,-0.0176,-0.0163,-0.0163,-0.0162,-0.0127,-0.0124,-0.0122,0,0,0,0,0,-0.0342,-0.0354,-0.0345,-0.0344,-0.0329,-0.0313,-0.0308,-0.0276,-0.0246,-0.0233,-0.0203,-0.0202,-0.0168,-0.017,-0.0169,-0.0157,-0.0163,-0.0163,-0.0162,-0.0128,-0.0125,-0.0122,0,0,0,0,0,0,-0.0358,-0.0348,-0.0338,-0.0345,-0.0324,-0.0301,-0.0293,-0.0263,-0.0228,-0.0211,-0.0196,-0.0191,-0.0166,-0.0169,-0.0171,-0.0154,-0.0168,-0.0167,-0.0142,-0.0139,-0.0137,-0.0141,-0.0175,0,0,0,0,0,-0.0366,-0.0371,-0.0352,-0.0357,-0.0346,-0.0313,-0.03,-0.027,-0.0242,-0.0222,-0.0193,-0.0174,-0.0172,-0.0157,-0.0156,-0.0143,-0.0161,-0.0137,-0.0134,-0.0132,-0.0136,-0.0162,-0.0162,-0.0161,-0.0161,-0.0161,0,0,-0.0377,-0.0371,-0.0375,-0.036,-0.0342,-0.0322,-0.0299,-0.027,-0.0241,-0.0227,-0.0172,-0.0163,-0.0168,-0.0151,-0.0141,-0.0144,-0.0138,-0.0131,-0.0129,-0.0135,-0.0161,-0.0162,-0.0162,-0.0161,-0.0161,-0.0161,0,0,-0.0393,-0.0389,-0.0391,-0.0373,-0.0342,-0.032,-0.0304,-0.0257,-0.0223,-0.0182,-0.0168,-0.0149,-0.0125,-0.0127,-0.013,-0.0115,-0.0127,-0.0108,-0.0091,-0.0115,-0.0115,-0.0116,-0.0125,-0.0127,-0.0101,-0.0101,-0.0101,0,-0.0399,-0.04,-0.0388,-0.0376,-0.0357,-0.0313,-0.0291,-0.0262,-0.0204,-0.0178,-0.0158,-0.0124,-0.0122,-0.0119,-0.0108,-0.011,-0.0117,-0.0099,-0.0112,-0.0113,-0.0114,-0.0123,-0.0126,-0.01,-0.01,-0.01,-0.01,0,-0.0406,-0.0403,-0.04,-0.0371,-0.0348,-0.0324,-0.0281,-0.0237,-0.0186,-0.0155,-0.0118,-0.0111,-0.0089,-0.0089,-0.0091,-0.0095,-0.0094,-0.0109,-0.0119,-0.0112,-0.0122,-0.0125,-0.0097,-0.0098,-0.0098,-0.0099,0,0,-0.0419,-0.0407,-0.0406,-0.0385,-0.0337,-0.0313,-0.0269,-0.0219,-0.0178,-0.0132,-0.0091,-0.0086,-0.0064,-0.0068,-0.0066,-0.0084,-0.0093,-0.009,-0.0092,-0.0097,-0.0131,-0.0144,-0.0149,-0.0104,-0.0105,-0.0105,-0.0128,0,-0.0417,-0.0412,-0.0396,-0.0361,-0.0342,-0.0291,-0.0252,-0.02,-0.015,-0.01,-0.0092,-0.0058,-0.0062,-0.0039,-0.006,-0.0084,-0.0102,-0.0085,-0.0139,-0.0141,-0.0152,-0.0154,-0.0107,-0.0131,-0.0132,-0.0132,-0.0133,0,-0.0412,-0.0411,-0.0395,-0.0344,-0.0328,-0.0288,-0.0206,-0.0166,-0.0107,-0.007,-0.0039,-0.0022,-0.0022,-0.0033,-0.0077,-0.006,-0.0092,-0.012,-0.0122,-0.0153,-0.0161,-0.0144,-0.0139,-0.0138,-0.0138,-0.0137,-0.0137,0,-0.0418,-0.0395,-0.0383,-0.0368,-0.0314,-0.0269,-0.0215,-0.0146,-0.0103,-0.004,-0.0007,-0.0003,0.0013,-0.0034,-0.0082,-0.0069,-0.015,-0.0141,-0.0188,-0.0188,-0.0185,-0.0184,-0.0191,-0.0191,-0.0191,-0.0191,-0.0191,0,-0.0405,-0.0396,-0.0378,-0.0367,-0.0312,-0.0261,-0.0183,-0.0131,-0.0064,-0.0034,0.0015,0.0001,0.0013,-0.0027,-0.008,-0.0148,-0.0149,-0.0189,-0.0201,-0.0166,-0.0164,-0.0186,-0.0185,-0.0192,-0.0192,-0.0192,-0.0191,0,-0.0402,-0.0405,-0.0394,-0.0348,-0.0313,-0.0268,-0.0155,-0.011,-0.0042,-0.0004,0.0017,0.0024,-0.0035,-0.005,-0.0129,-0.0137,-0.0211,-0.0244,-0.0201,-0.0209,-0.0224,-0.0221,-0.0263,-0.0264,-0.0265,-0.0265,-0.0266,0,-0.04,-0.0399,-0.0384,-0.0361,-0.0326,-0.0246,-0.0187,-0.0101,-0.0068,-0.0037,-0.0044,-0.0057,-0.007,-0.0166,-0.0211,-0.0269,-0.0287,-0.0272,-0.0244,-0.0227,-0.0234,-0.023,-0.0226,-0.0267,-0.0267,-0.0267,-0.0267,0,-0.039,-0.0403,-0.0401,-0.0367,-0.0311,-0.0252,-0.017,-0.0147,-0.0081,-0.0034,-0.0072,-0.0088,-0.0154,-0.021,-0.023,-0.0301,-0.0243,-0.0278,-0.0276,-0.025,-0.0232,-0.0237,-0.0232,-0.027,-0.0269,-0.0269,-0.0269,0,-0.0391,-0.0398,-0.0405,-0.0359,-0.031,-0.0264,-0.022,-0.0175,-0.0131,-0.0082,-0.0142,-0.018,-0.0189,-0.0238,-0.0314,-0.0315,-0.0307,-0.0261,-0.0259,-0.0257,-0.0248,-0.0223,-0.0274,0,0,0,0,0,-0.0382,-0.0388,-0.0372,-0.0345,-0.0305,-0.0266,-0.0211,-0.0181,-0.0141,-0.0151,-0.0117,-0.0191,-0.0235,-0.0299,-0.0304,-0.0351,-0.0329,-0.0356,-0.028,-0.0283,-0.028,-0.0272,0,0,0,0,0,0,-0.0379,-0.0385,-0.0386,-0.0336,-0.0305,-0.0257,-0.0227,-0.0208,-0.0207,-0.0174,-0.022,-0.0169,-0.0251,-0.0232,-0.0302,-0.031,-0.0253,-0.0372,-0.0371,-0.0284,-0.0282,-0.028,-0.027,0,0,0,0,0]},{"header":{"parameterUnit":"m.s-1","parameterCategory":2,"la1":30.2991,"la2":30.254,"lo1":-89.0895,"lo2":-89.0444,"dy":0.0017,"dx":0.0017,"nx":28,"ny":28,"refTime":"2024-10-01T03:00:00:Z","depth":"4","parameterNumber":3,"parameterNumberName":"V-component_of_CURRENTS"},"data":[0,0,0,0,0,0,0,0,0,0,0,0,0,0,0,0,0,0,0,0,0,0,0,0,0,0,0,0,0,0,0,0,0,0,0,0,0,0,0,0,0,0,0,0,0,0,0,0,0,0,0,0,0,0,0,0,0,0,0.043,0.043,0,0.0477,0.0477,0.0478,0.0499,0.0499,0.0499,0.0499,0.0416,0.0414,0.0412,0,0,0,0,0,0,0,0,0,0,0,0,0,0.036,0.0361,0.043,0.043,0.0431,0.0477,0.0477,0.0478,0.0499,0.0499,0.0499,0.05,0.0417,0.0414,0.0412,0,0,0,0,0,0,0,0,0,0,0,0,0,0.0394,0.0361,0.043,0.0449,0.0452,0.0477,0.0477,0.0478,0.0499,0.0499,0.0499,0.05,0.0418,0.0415,0.0411,0.0384,0,0,0.04,0.0399,0,0,0,0,0,0,0,0,0.0392,0.0397,0.0445,0.0448,0.0451,0.0484,0.0422,0.0441,0.0499,0.0478,0.0499,0.05,0.0428,0.0424,0.0431,0.038,0.0377,0.04,0.0398,0.0396,0.0395,0,0,0,0,0,0,0,0.039,0.0395,0.0446,0.0446,0.045,0.0456,0.0461,0.0426,0.0447,0.048,0.0482,0.0491,0.0429,0.0434,0.0429,0.0375,0.04,0.0397,0.0395,0.0393,0.0243,0.0241,0,0,0,0,0,0,0.0389,0.0393,0.0444,0.0448,0.0424,0.0458,0.0463,0.0471,0.045,0.0449,0.0491,0.0492,0.044,0.0433,0.0426,0.0348,0.0396,0.0393,0.0391,0.0245,0.0243,0.0241,0,0,0,0,0,0,0.0387,0.0393,0.0443,0.0423,0.043,0.0459,0.0468,0.0472,0.0471,0.0461,0.0456,0.0485,0.044,0.0431,0.0377,0.0346,0.0391,0.0388,0.0247,0.0244,0.0242,0.022,0,0,0,0,0,0,0.0385,0.0392,0.041,0.0423,0.0431,0.0454,0.0468,0.0473,0.0478,0.0479,0.0453,0.0447,0.044,0.0383,0.0374,0.0342,0.0385,0.0249,0.0246,0.0243,0.0223,0.0217,0.0212,0,0,0,0,0,0.0382,0.0397,0.041,0.0417,0.0451,0.0454,0.0458,0.0478,0.0477,0.0476,0.0448,0.0448,0.0354,0.0378,0.0368,0.0335,0.0251,0.0247,0.0243,0.0226,0.0218,0.0212,0,0,0,0,0,0,0.0377,0.0402,0.0416,0.0439,0.0446,0.0458,0.0472,0.0469,0.045,0.0441,0.0425,0.0415,0.0358,0.0344,0.0371,0.028,0.0302,0.0295,0.0292,0.0285,0.0279,0.0298,0.0382,0,0,0,0,0,0.0385,0.0402,0.0418,0.0436,0.0442,0.0452,0.0459,0.0457,0.0442,0.0436,0.0403,0.0366,0.0334,0.0309,0.0276,0.0224,0.0236,0.0194,0.0188,0.0183,0.019,0.0185,0.018,0.0227,0.0227,0.0227,0,0,0.0391,0.0405,0.0419,0.0437,0.0448,0.0451,0.0456,0.0453,0.044,0.0424,0.0379,0.0342,0.0315,0.0262,0.0234,0.0245,0.0174,0.0178,0.0174,0.0184,0.018,0.0176,0.0172,0.0224,0.0225,0.0225,0,0,0.0396,0.042,0.0432,0.0439,0.0447,0.0446,0.0439,0.0424,0.0409,0.0356,0.0343,0.0294,0.0226,0.0212,0.0197,0.0137,0.0145,0.0107,0.0091,0.0086,0.0083,0.0081,0.009,0.0089,0.0103,0.0103,0.0103,0,0.0407,0.0424,0.0435,0.0442,0.045,0.0439,0.0438,0.0423,0.038,0.0351,0.0334,0.0236,0.0213,0.0171,0.0146,0.0128,0.0125,0.0125,0.0082,0.008,0.0078,0.0088,0.0087,0.0102,0.0102,0.0102,0.0102,0,0.0408,0.0434,0.0438,0.0448,0.0448,0.0444,0.0425,0.0388,0.0348,0.0321,0.0245,0.0204,0.0149,0.0126,0.0116,0.0076,0.008,0.008,0.0109,0.0072,0.0085,0.0084,0.0099,0.01,0.01,0.0101,0,0,0.0406,0.0437,0.0446,0.0451,0.0449,0.044,0.0408,0.0374,0.0336,0.0273,0.0221,0.0159,0.012,0.0101,0.0074,0.0063,0.0046,0.0056,0.0056,0.0083,0.0035,0.0032,0.0031,0.0031,0.0031,0.0031,0.0051,0,0.041,0.0435,0.0442,0.0448,0.0453,0.0432,0.04,0.0357,0.0304,0.024,0.0194,0.0133,0.0118,0.0074,0.006,0.004,0.0041,0.0041,0.0052,0.0053,0.0069,0.003,0.0029,0.005,0.005,0.005,0.005,0,0.04,0.0424,0.0445,0.0439,0.0437,0.0421,0.0361,0.0329,0.0253,0.0206,0.0144,0.0102,0.0059,0.0055,0.003,0.0022,0.0028,0.0029,0.0029,0.0037,0.0048,0.0092,0.0049,0.0049,0.005,0.005,0.005,0,0.0376,0.0413,0.0431,0.0437,0.0431,0.0404,0.0372,0.0303,0.0269,0.018,0.0142,0.0081,0.0045,0.0034,0.0026,0.0016,0.0018,0.0011,0.0028,0.0029,0.004,0.0043,0.002,0.002,0.002,0.0019,0.0019,0,0.0359,0.0372,0.042,0.0425,0.0407,0.0388,0.0333,0.0285,0.0226,0.0182,0.012,0.0073,0.0036,0.0026,0.0024,0.0021,0.0021,0.0024,0.0028,0.0028,0.0029,0.004,0.0042,0.002,0.002,0.002,0.002,0,0.0315,0.0361,0.0383,0.0401,0.0395,0.0371,0.0327,0.0285,0.0229,0.0175,0.015,0.0074,0.0034,0.0034,0.0019,0.0024,0.0025,0.004,0.0053,0.0059,0.004,0.0041,0.0036,0.0036,0.0035,0.0035,0.0035,0,0.0292,0.0306,0.0366,0.0377,0.0382,0.0353,0.0322,0.0277,0.0245,0.0169,0.0145,0.0092,0.0045,0.0011,0.0014,0.0027,0.0036,0.0051,0.0026,0.0034,0.0039,0.004,0.004,0.0035,0.0035,0.0035,0.0035,0,0.0244,0.0282,0.0306,0.0344,0.0342,0.0334,0.029,0.0259,0.0205,0.0205,0.0104,0.0058,0.0022,-0.0019,0.0011,0.0019,0.0035,0.005,0.005,0.0026,0.0034,0.0039,0.0039,0.0035,0.0035,0.0035,0.0035,0,0.0211,0.0224,0.0272,0.029,0.0309,0.028,0.0259,0.0207,0.0173,0.011,0.0081,0.0019,0.0001,-0.002,-0.0002,0.001,0.0001,0.0004,0.0006,0.0006,-0.001,-0.0005,-0.0017,0,0,0,0,0,0.0179,0.0181,0.0202,0.0224,0.0247,0.0257,0.0229,0.0212,0.0184,0.0113,0.0091,0.0047,0.0005,-0.0028,-0.0022,0.0008,0.0022,0.0018,0.0031,0.0034,0.0034,0.0019,0,0,0,0,0,0,0.0156,0.0173,0.0186,0.0171,0.0175,0.0181,0.0162,0.0142,0.0093,0.0071,0.0037,0.0064,0.0021,0.0006,-0.0019,-0.0013,-0.0003,0.0019,0.0019,0.0034,0.0034,0.0034,0.0018,0,0,0,0,0]}]]